Denver, CO

3:24 PM MST on November 24, 2017 (GMT -0700)
Denver International

Weather History for KDEN - March, 2015

Change the Weather History Date:

Tuesday, March 31, 2015

  Actual Average Record
Temperature  
Mean Temperature 58 °F 44 °F  
Max Temperature 77 °F 58 °F 81 °F (2012)
Min Temperature 38 °F 30 °F 5 °F (1954)
Degree Days  
Heating Degree Days 7 21  
Month to date heating degree days 611 762  
Since 1 July heating degree days 4724 5202  
Cooling Degree Days 0 0  
Month to date cooling degree days 0 0  
Year to date cooling degree days 0 0  
Growing Degree Days 7 (Base 50)    
Moisture  
Dew Point 22 °F    
Average Humidity 32    
Maximum Humidity 54    
Minimum Humidity 10    
Precipitation  
Precipitation 0.00 in 0.04 in 1.03 in (1876)
Month to date precipitation 0.79 0.92  
Year to date precipitation 2.42 1.70  
Snow  
Snow 0.00 in - - ()
Month to date snowfall 2.9  
Since 1 July snowfall 48.5  
Snow Depth 0.00 in    
Sea Level Pressure  
Sea Level Pressure 29.81 in    
Wind  
Wind Speed 9 mph (South)    
Max Wind Speed 20 mph    
Max Gust Speed 23 mph    
Visibility 10 miles    
Events Rain    
T = Trace of Precipitation, MM = Missing Value Source: NWS Daily Summary

Daily Weather History Graph

Daily Weather History Graph

Search for Another Location

Airport or City:

Trip Planner

Search our weather history database for the weather conditions in past years. The results will help you decide how hot, cold, wet, or windy it might be!

Date:

Astronomy

Mar. 31, 2015 Rise Set
Actual Time 6:44 AM MDT 7:21 PM MDT
Civil Twilight 6:17 AM MDT 7:48 PM MDT
Nautical Twilight 5:45 AM MDT 8:21 PM MDT
Astronomical Twilight 5:12 AM MDT 8:54 PM MDT
Moon 4:08 PM MDT (3/31) 4:44 AM MDT (3/31)
Length of Visible Light 13h 31m
Length of Day
12h 37m
Waxing Gibbous, 88% of the Moon is Illuminated
Mar 31
Waxing Gibbous
Apr 4
Full
Apr 11
Last Quarter
Apr 18
New
Apr 25
First Quarter

Hourly Weather History & Observations

Time (MDT) Temp. Windchill Dew Point Humidity Pressure Visibility Wind Dir Wind Speed Gust Speed Precip Events Conditions
12:53 AM 46.0 °F 41.9 °F 25.0 °F 44% 29.97 in 10.0 mi WSW 8.1 mph - N/A   Partly Cloudy
1:53 AM 48.0 °F - 23.0 °F 37% 29.94 in 10.0 mi SW 12.7 mph - N/A   Partly Cloudy
2:53 AM 48.9 °F - 21.9 °F 35% 29.93 in 10.0 mi SSW 15.0 mph - N/A   Clear
3:53 AM 48.0 °F - 21.0 °F 34% 29.92 in 10.0 mi SW 10.4 mph - N/A   Clear
4:53 AM 46.0 °F 44.8 °F 21.0 °F 37% 29.92 in 10.0 mi SE 3.5 mph - N/A   Clear
5:53 AM 44.1 °F 40.1 °F 21.0 °F 40% 29.94 in 10.0 mi SSW 6.9 mph - N/A   Clear
6:53 AM 37.9 °F 30.5 °F 23.0 °F 55% 29.97 in 10.0 mi SSW 11.5 mph - N/A   Clear
7:53 AM 46.9 °F - 27.0 °F 46% 29.98 in 10.0 mi SSE 3.5 mph - N/A   Clear
8:53 AM 57.0 °F - 25.0 °F 29% 29.93 in 10.0 mi SW 10.4 mph - N/A   Clear
9:53 AM 64.0 °F - 24.1 °F 22% 29.91 in 10.0 mi SW 8.1 mph - N/A   Partly Cloudy
10:53 AM 70.0 °F - 21.0 °F 16% 29.89 in 10.0 mi South 10.4 mph - N/A   Partly Cloudy
11:53 AM 72.0 °F - 19.0 °F 13% 29.87 in 10.0 mi WSW 8.1 mph - N/A   Partly Cloudy
12:53 PM 73.9 °F - 21.0 °F 14% 29.83 in 10.0 mi Variable 6.9 mph - N/A   Partly Cloudy
1:53 PM 73.0 °F - 16.0 °F 11% 29.79 in 10.0 mi Variable 4.6 mph - N/A   Scattered Clouds
2:53 PM 75.0 °F - 16.0 °F 11% 29.75 in 10.0 mi Variable 3.5 mph - N/A   Scattered Clouds
3:53 PM 75.0 °F - 17.1 °F 11% 29.71 in 10.0 mi SE 9.2 mph - N/A   Partly Cloudy
4:53 PM 75.0 °F - 17.1 °F 11% 29.69 in 10.0 mi Variable 5.8 mph - N/A   Partly Cloudy
5:53 PM 73.9 °F - 17.1 °F 12% 29.70 in 10.0 mi SE 5.8 mph - N/A   Partly Cloudy
6:53 PM 64.9 °F - 28.9 °F 26% 29.73 in 10.0 mi ENE 10.4 mph - N/A   Scattered Clouds
7:53 PM 61.0 °F - 28.0 °F 29% 29.71 in 10.0 mi East 5.8 mph - N/A   Scattered Clouds
8:53 PM 59.0 °F - 25.0 °F 27% 29.68 in 10.0 mi SSW 10.4 mph - N/A   Scattered Clouds
9:53 PM 54.0 °F - 28.0 °F 37% 29.65 in 10.0 mi SSE 15.0 mph - N/A   Mostly Cloudy
10:53 PM 60.1 °F - 21.9 °F 23% 29.61 in 10.0 mi SSW 18.4 mph - 0.00 in Rain Light Rain
11:53 PM 55.0 °F - 23.0 °F 29% 29.60 in 10.0 mi WSW 10.4 mph - N/A   Partly Cloudy